Weather History for Macapa, Brazil

Change the Weather History Date:

Friday, March 7, 2014

  Actual Average Record
Temperature  
Mean Temperature 77 °F -  
Max Temperature 81 °F 84 °F 91 °F (2007)
Min Temperature 73 °F 72 °F 73 °F (1997)
Cooling Degree Days 12    
Growing Degree Days 27 (Base 50)    
Moisture  
Dew Point 75 °F    
Average Humidity 91    
Maximum Humidity 100    
Minimum Humidity 70    
Precipitation  
Precipitation 0.24 in - - ()
Sea Level Pressure  
Sea Level Pressure 29.88 in    
Wind  
Wind Speed 5 mph ()    
Max Wind Speed 12 mph    
Max Gust Speed -    
Visibility 5.5 miles    
Events Rain    
Averages and records for this station are not official NWS values.
T = Trace of Precipitation, MM = Missing Value Source: Averaged Metar Reports

Daily Weather History Graph

Daily Weather History Graph

Search for Another Location

Airport:

Trip Planner

Search our weather history database for the weather conditions in past years. The results will help you decide how hot, cold, wet, or windy it might be!

Date:

Astronomy

Mar. 07, 2014 Rise Set
Actual Time 6:31 AM BRT 6:38 PM BRT
Civil Twilight 6:11 AM BRT 6:59 PM BRT
Nautical Twilight 5:47 AM BRT 7:23 PM BRT
Astronomical Twilight 5:22 AM BRT 7:47 PM BRT
Moon 11:43 AM BRT (3/7) No Moon Set
Length of Visible Light 12h 48m
Length of Day
12h 06m
Waxing Crescent, 41% of the Moon is Illuminated
Mar 7
Waxing Crescent
Mar 8
First Quarter
Mar 16
Full
Mar 23
Last Quarter
Mar 30
New

Hourly Weather History & Observations

Time (BRT) Temp. Heat Index Dew Point Humidity Pressure Visibility Wind Dir Wind Speed Gust Speed Precip Events Conditions
12:00 AM 77.0 °F - 75.2 °F 94% 29.92 in 6.2 mi North 2.3 mph - N/A   Mostly Cloudy
1:00 AM 77.0 °F - 75.2 °F 94% 29.89 in 6.2 mi NNW 4.6 mph - N/A   Partly Cloudy
2:00 AM 77.0 °F - 75.2 °F 94% 29.89 in 6.2 mi NNW 4.6 mph - N/A   Scattered Clouds
2:12 AM 77.0 °F - 75.2 °F 94% 29.86 in 6.2 mi NW 3.5 mph - N/A   Mostly Cloudy
3:00 AM 75.2 °F - 75.2 °F 100% 29.86 in 6.2 mi NNW 4.6 mph - N/A   Mostly Cloudy
4:00 AM 75.2 °F - 75.2 °F 100% 29.86 in 6.2 mi NNW 4.6 mph - N/A   Mostly Cloudy
5:00 AM 75.2 °F - 75.2 °F 100% 29.86 in 6.2 mi NNW 5.8 mph - N/A   Mostly Cloudy
6:00 AM 75.2 °F - 75.2 °F 100% 29.86 in 6.2 mi NNW 6.9 mph - N/A   Scattered Clouds
6:20 AM 75.2 °F - 75.2 °F 100% 29.89 in 6.2 mi NNW 4.6 mph - N/A   Mostly Cloudy
7:00 AM 75.2 °F - 75.2 °F 100% 29.89 in 6.2 mi NNW 4.6 mph - N/A   Mostly Cloudy
8:00 AM 77.0 °F - 75.2 °F 94% 29.89 in 6.2 mi North 6.9 mph - N/A   Mostly Cloudy
9:00 AM 77 °F - 74 °F 87% 29.91 in 6 mi North 2.3 mph - -   Partly Cloudy
9:00 AM 78.8 °F - 75.2 °F 89% 29.92 in 6.2 mi North 5.8 mph - N/A   Mostly Cloudy
9:37 AM 78.8 °F - 75.2 °F 89% 29.92 in 6.2 mi North 8.1 mph - N/A   Mostly Cloudy
10:00 AM 80.6 °F 86.2 °F 75.2 °F 84% 29.95 in 6.2 mi North 10.4 mph - N/A   Mostly Cloudy
11:00 AM 84.2 °F 90.9 °F 73.4 °F 70% 29.95 in 6.2 mi North 10.4 mph - N/A   Mostly Cloudy
12:00 PM 84.2 °F 92.3 °F 75.2 °F 74% - 2.5 mi NNE 9.2 mph - N/A Rain Light Rain
1:00 PM 82.4 °F 89.5 °F 75.2 °F 79% 29.89 in 6.2 mi NE 6.9 mph - N/A   Mostly Cloudy
2:00 PM 78.8 °F - 77.0 °F 94% 29.86 in 3.1 mi East 5.8 mph - N/A Rain Light Rain
3:00 PM 77 °F - 74 °F 88% 29.85 in 2 mi ENE 4.6 mph - - Rain Light Drizzle
3:00 PM 78.8 °F - 77.0 °F 94% 29.83 in 6.2 mi ENE 11.5 mph - N/A Rain Light Rain
4:00 PM 80.6 °F 87.1 °F 77.0 °F 89% 29.83 in 6.2 mi NE 9.2 mph - N/A   Mostly Cloudy
5:00 PM 80.6 °F 86.2 °F 75.2 °F 84% 29.83 in 6.2 mi ENE 11.5 mph - N/A   Mostly Cloudy
6:00 PM 78.8 °F - 75.2 °F 89% 29.83 in 6.2 mi NE 6.9 mph - N/A   Mostly Cloudy
6:27 PM 78.8 °F - 75.2 °F 89% 29.86 in 3.1 mi NNE 6.9 mph - N/A Rain Light Rain
7:00 PM 77.0 °F - 75.2 °F 94% 29.86 in 5.0 mi NE 6.9 mph - N/A Rain Light Rain
8:00 PM 77.0 °F - 75.2 °F 94% 29.86 in - NNE 4.6 mph - N/A   Clear
9:00 PM 76 °F - 74 °F 91% 29.87 in 2 mi North 2.3 mph - -   Partly Cloudy
9:00 PM 77.0 °F - 75.2 °F 94% 29.89 in 6.2 mi NE 4.6 mph - N/A   Unknown
10:00 PM 77.0 °F - 75.2 °F 94% 29.89 in 6.2 mi NNW 4.6 mph - N/A   Partly Cloudy
11:00 PM 77.0 °F - 75.2 °F 94% 29.92 in 6.2 mi NNW 3.5 mph - N/A   Overcast